• In Netherlands
  • List of Countries
  • For 7 days
  • Water Temperature
  • Satellite Maps
  • Weather Map
  • Weather Widgets
  • user-avatar
    Login

    Hourly Weather Escaldes-Engordany

    Today, 21 September, Thursday

    Time Temperature Precipitation Wind Pressure Humidity
    00:00 +8°C° 0 mm 1 mps 640 mmHg 70%
    01:00 +8°C° 0 mm 1 mps 640 mmHg 69%
    02:00 +8°C° 0 mm 1 mps 640 mmHg 68%
    03:00 +8°C° 0 mm 1 mps 640 mmHg 67%
    04:00 +8°C° 0 mm 1 mps 640 mmHg 65%
    05:00 +8°C° 0 mm 1 mps 640 mmHg 64%
    06:00 +8°C° 0 mm 1 mps 640 mmHg 63%
    07:00 +11°C° 0 mm 1 mps 641 mmHg 55%
    08:00 +14°C° 0 mm 1 mps 642 mmHg 47%
    09:00 +18°C° 0 mm 1 mps 643 mmHg 39%
    10:00 +19°C° 0 mm 1 mps 643 mmHg 37%
    11:00 +20°C° 0 mm 1 mps 644 mmHg 35%
    12:00 +20°C° 0 mm 2 mps 644 mmHg 33%
    13:00 +20°C° 0 mm 2 mps 644 mmHg 35%
    14:00 +20°C° 0 mm 2 mps 643 mmHg 36%
    15:00 +20°C° 0 mm 2 mps 643 mmHg 38%
    16:00 +18°C° 0 mm 1 mps 642 mmHg 48%
    17:00 +15°C° 0 mm 1 mps 642 mmHg 58%
    18:00 +12°C° 0 mm 1 mps 641 mmHg 68%
    19:00 +12°C° 0 mm 1 mps 641 mmHg 71%
    20:00 +11°C° 0 mm 1 mps 641 mmHg 73%
    21:00 +10°C° 0 mm 1 mps 642 mmHg 75%
    22:00 +10°C° 0.1 mm 1 mps 642 mmHg 75%
    23:00 +10°C° 0.1 mm 1 mps 642 mmHg 75%

    Tomorrow, 22 September, Friday

    Time Temperature Precipitation Wind Pressure Humidity
    00:00 +9°C° 0.1 mm 1 mps 642 mmHg 75%
    01:00 +9°C° 0.2 mm 1 mps 642 mmHg 75%
    02:00 +9°C° 0.2 mm 1 mps 642 mmHg 75%
    03:00 +9°C° 0.2 mm 1 mps 642 mmHg 75%
    04:00 +9°C° 0.1 mm 1 mps 642 mmHg 76%
    05:00 +10°C° 0.1 mm 1 mps 642 mmHg 77%
    06:00 +10°C° 0.1 mm 1 mps 642 mmHg 78%
    07:00 +11°C° 0.1 mm 1 mps 643 mmHg 74%
    08:00 +13°C° 0.1 mm 1 mps 644 mmHg 70%
    09:00 +14°C° 0.1 mm 1 mps 645 mmHg 65%
    10:00 +15°C° 0.5 mm 1 mps 645 mmHg 66%
    11:00 +15°C° 0.5 mm 1 mps 645 mmHg 67%
    12:00 +15°C° 0.5 mm 1 mps 645 mmHg 68%
    13:00 +15°C° 0.9 mm 1 mps 644 mmHg 69%
    14:00 +14°C° 0.9 mm 1 mps 644 mmHg 71%
    15:00 +13°C° 0.9 mm 0 mps 643 mmHg 73%
    16:00 +12°C° 0.4 mm 0 mps 643 mmHg 76%
    17:00 +11°C° 0.4 mm 0 mps 643 mmHg 79%
    18:00 +10°C° 0.4 mm 0 mps 643 mmHg 83%
    19:00 +11°C° 0.2 mm 1 mps 643 mmHg 84%
    20:00 +11°C° 0.2 mm 1 mps 643 mmHg 85%
    21:00 +10°C° 0.2 mm 1 mps 643 mmHg 86%
    22:00 +10°C° 0.1 mm 1 mps 643 mmHg 86%
    23:00 +10°C° 0.1 mm 1 mps 643 mmHg 86%

    Day after tomorrow, 23 September, Saturday

    Time Temperature Precipitation Wind Pressure Humidity
    00:00 +9°C° 0.1 mm 1 mps 642 mmHg 86%
    01:00 +9°C° 0.1 mm 1 mps 642 mmHg 85%
    02:00 +9°C° 0.1 mm 1 mps 642 mmHg 84%
    03:00 +9°C° 0.1 mm 1 mps 642 mmHg 83%
    04:00 +9°C° 0 mm 1 mps 642 mmHg 82%
    05:00 +9°C° 0 mm 1 mps 641 mmHg 82%
    06:00 +9°C° 0 mm 1 mps 641 mmHg 81%
    07:00 +11°C° 0 mm 1 mps 642 mmHg 73%
    08:00 +14°C° 0 mm 1 mps 643 mmHg 64%
    09:00 +16°C° 0 mm 1 mps 644 mmHg 56%
    10:00 +17°C° 0.1 mm 2 mps 645 mmHg 52%
    11:00 +18°C° 0.1 mm 2 mps 645 mmHg 48%
    12:00 +19°C° 0.1 mm 2 mps 645 mmHg 44%
    13:00 +19°C° 0.2 mm 2 mps 644 mmHg 46%
    14:00 +19°C° 0.2 mm 2 mps 644 mmHg 47%
    15:00 +19°C° 0.2 mm 2 mps 644 mmHg 49%
    16:00 +17°C° 0.1 mm 2 mps 643 mmHg 57%
    17:00 +15°C° 0.1 mm 1 mps 642 mmHg 64%
    18:00 +13°C° 0.1 mm 1 mps 642 mmHg 72%
    19:00 +12°C° 0 mm 1 mps 642 mmHg 74%
    20:00 +12°C° 0 mm 1 mps 642 mmHg 76%
    21:00 +11°C° 0 mm 1 mps 642 mmHg 78%
    22:00 +11°C° 0 mm 1 mps 642 mmHg 76%
    23:00 +11°C° 0 mm 1 mps 642 mmHg 75%

    24 September, Sunday

    Time Temperature Precipitation Wind Pressure Humidity
    00:00 +11°C° 0 mm 1 mps 642 mmHg 74%
    01:00 +10°C° 0 mm 1 mps 641 mmHg 72%
    02:00 +10°C° 0 mm 1 mps 641 mmHg 71%
    03:00 +10°C° 0 mm 1 mps 641 mmHg 69%
    04:00 +10°C° 0 mm 1 mps 641 mmHg 68%
    05:00 +10°C° 0 mm 1 mps 641 mmHg 67%
    06:00 +10°C° 0 mm 1 mps 641 mmHg 65%
    07:00 +13°C° 0 mm 1 mps 642 mmHg 58%
    08:00 +16°C° 0 mm 1 mps 644 mmHg 51%
    09:00 +18°C° 0 mm 0 mps 645 mmHg 43%
    10:00 +21°C° 0 mm 1 mps 645 mmHg 41%
    11:00 +22°C° 0 mm 1 mps 645 mmHg 39%
    12:00 +23°C° 0 mm 2 mps 645 mmHg 36%
    13:00 +21°C° 0 mm 2 mps 645 mmHg 39%
    14:00 +21°C° 0 mm 2 mps 644 mmHg 41%
    15:00 +20°C° 0 mm 2 mps 644 mmHg 43%
    16:00 +18°C° 0 mm 2 mps 643 mmHg 50%
    17:00 +18°C° 0 mm 1 mps 643 mmHg 56%
    18:00 +15°C° 0 mm 1 mps 642 mmHg 63%
    19:00 +14°C° 0 mm 1 mps 642 mmHg 65%
    20:00 +13°C° 0 mm 1 mps 642 mmHg 67%
    21:00 +12°C° 0 mm 1 mps 642 mmHg 68%
    22:00 +12°C° 0 mm 1 mps 642 mmHg 68%
    23:00 +12°C° 0 mm 1 mps 641 mmHg 67%

    25 September, Monday

    Time Temperature Precipitation Wind Pressure Humidity
    00:00 +12°C° 0 mm 1 mps 641 mmHg 66%
    01:00 +12°C° 0 mm 1 mps 641 mmHg 67%
    02:00 +11°C° 0 mm 1 mps 641 mmHg 68%
    03:00 +11°C° 0 mm 1 mps 641 mmHg 69%
    04:00 +11°C° 0 mm 1 mps 641 mmHg 70%
    05:00 +10°C° 0 mm 1 mps 641 mmHg 72%
    06:00 +10°C° 0 mm 1 mps 641 mmHg 73%
    07:00 +12°C° 0 mm 1 mps 642 mmHg 68%
    08:00 +14°C° 0 mm 1 mps 643 mmHg 62%
    09:00 +16°C° 0 mm 1 mps 643 mmHg 57%
    10:00 +17°C° 0 mm 2 mps 644 mmHg 57%
    11:00 +17°C° 0 mm 2 mps 644 mmHg 56%
    12:00 +18°C° 0 mm 2 mps 644 mmHg 56%
    13:00 +17°C° 0.3 mm 2 mps 643 mmHg 60%
    14:00 +16°C° 0.3 mm 2 mps 643 mmHg 64%
    15:00 +16°C° 0.3 mm 2 mps 642 mmHg 68%
    16:00 +15°C° 0.4 mm 2 mps 642 mmHg 74%
    17:00 +13°C° 0.4 mm 2 mps 642 mmHg 80%
    18:00 +12°C° 0.4 mm 2 mps 641 mmHg 86%
    19:00 +12°C° 0.1 mm 2 mps 641 mmHg 89%
    20:00 +10°C° 0.1 mm 2 mps 641 mmHg 91%
    21:00 +9°C° 0.1 mm 2 mps 641 mmHg 93%
    22:00 +9°C° 0.2 mm 2 mps 641 mmHg 93%
    23:00 +10°C° 0.2 mm 1 mps 641 mmHg 93%

    26 September, Tuesday

    Time Temperature Precipitation Wind Pressure Humidity
    00:00 +10°C° 0.2 mm 1 mps 641 mmHg 94%
    01:00 +10°C° 0.1 mm 1 mps 641 mmHg 94%
    02:00 +9°C° 0.1 mm 1 mps 641 mmHg 95%
    03:00 +9°C° 0.1 mm 1 mps 640 mmHg 96%
    04:00 +9°C° 0.1 mm 1 mps 640 mmHg 96%
    05:00 +9°C° 0.1 mm 1 mps 640 mmHg 95%
    06:00 +8°C° 0.1 mm 1 mps 640 mmHg 95%
    07:00 +10°C° 0 mm 1 mps 641 mmHg 87%
    08:00 +11°C° 0 mm 1 mps 641 mmHg 79%
    09:00 +13°C° 0 mm 1 mps 642 mmHg 71%
    10:00 +14°C° 0 mm 1 mps 642 mmHg 64%
    11:00 +15°C° 0 mm 1 mps 642 mmHg 56%
    12:00 +16°C° 0 mm 1 mps 642 mmHg 49%
    13:00 +16°C° 0 mm 1 mps 642 mmHg 51%
    14:00 +16°C° 0 mm 1 mps 641 mmHg 53%
    15:00 +15°C° 0 mm 1 mps 641 mmHg 55%
    16:00 +14°C° 0 mm 1 mps 640 mmHg 63%
    17:00 +12°C° 0 mm 1 mps 640 mmHg 70%
    18:00 +10°C° 0 mm 0 mps 640 mmHg 77%
    19:00 +10°C° 0 mm 1 mps 640 mmHg 81%
    20:00 +10°C° 0 mm 1 mps 640 mmHg 84%
    21:00 +9°C° 0 mm 1 mps 640 mmHg 88%
    22:00 +9°C° 0 mm 1 mps 640 mmHg 89%
    23:00 +8°C° 0 mm 1 mps 640 mmHg 90%
    Show more